�������l�o���
Date,Time,MP-1(��Sv/h),MP-2(��Sv/h),MP-3(��Sv/h),MP-4(��Sv/h),MP-5(��Sv/h),MP-6(��Sv/h),MP-7(��Sv/h),MP-8(��Sv/h),����,����(m/s),���J
2022/08/14,00:00,0.586,0.832,0.527,1.014,0.725,0.339,0.588,0.551,���k��,4.7,��
2022/08/14,00:10,0.586,0.832,0.527,1.014,0.725,0.336,0.585,0.552,���k��,5.0,�L
2022/08/14,00:20,0.586,0.833,0.527,1.009,0.720,0.340,0.585,0.549,���k��,5.2,�L
2022/08/14,00:30,0.579,0.819,0.521,1.003,0.715,0.336,0.583,0.548,���k��,5.5,�L
2022/08/14,00:40,0.583,0.822,0.522,1.001,0.716,0.336,0.583,0.547,�k��,5.2,�L
2022/08/14,00:50,0.583,0.821,0.521,1.000,0.719,0.336,0.583,0.549,�k��,5.6,�L
2022/08/14,01:00,0.581,0.819,0.522,1.001,0.714,0.336,0.583,0.547,�k��,5.3,�L
2022/08/14,01:10,0.582,0.822,0.520,0.997,0.717,0.336,0.583,0.549,�k�k��,5.0,�L
2022/08/14,01:20,0.584,0.822,0.520,0.997,0.716,0.337,0.584,0.548,�k,4.5,�L
2022/08/14,01:30,0.583,0.824,0.522,0.997,0.717,0.336,0.583,0.549,�k�k��,5.4,�L
2022/08/14,01:40,0.581,0.822,0.523,0.996,0.716,0.336,0.584,0.548,�k�k��,5.9,�L
2022/08/14,01:50,0.583,0.820,0.522,0.998,0.716,0.337,0.582,0.548,�k�k��,6.4,�L
2022/08/14,02:00,0.583,0.819,0.521,0.995,0.715,0.336,0.582,0.547,�k�k��,6.0,�L
2022/08/14,02:10,0.584,0.821,0.524,0.995,0.716,0.337,0.582,0.550,�k�k��,6.6,�L
2022/08/14,02:20,0.581,0.820,0.521,0.993,0.716,0.336,0.583,0.548,�k�k��,7.9,�L
2022/08/14,02:30,0.583,0.822,0.522,0.995,0.716,0.336,0.582,0.547,�k�k��,6.6,��
2022/08/14,02:40,0.583,0.824,0.522,0.993,0.718,0.337,0.582,0.548,�k�k��,7.1,��
2022/08/14,02:50,0.582,0.820,0.520,0.994,0.716,0.335,0.583,0.549,�k��,6.3,��
2022/08/14,03:00,0.585,0.821,0.521,0.996,0.714,0.336,0.582,0.549,�k��,6.2,��
2022/08/14,03:10,0.584,0.822,0.523,0.997,0.716,0.336,0.583,0.549,�k��,6.2,��
2022/08/14,03:20,0.584,0.821,0.523,0.996,0.718,0.334,0.582,0.548,�k��,6.3,��
2022/08/14,03:30,0.585,0.823,0.523,0.996,0.717,0.337,0.583,0.550,�k�k��,6.5,��
2022/08/14,03:40,0.583,0.823,0.523,0.995,0.719,0.337,0.582,0.550,�k��,5.9,��
2022/08/14,03:50,0.583,0.825,0.523,0.998,0.719,0.336,0.582,0.550,�k��,5.7,��
2022/08/14,04:00,0.585,0.826,0.525,0.998,0.718,0.337,0.582,0.548,�k��,5.1,��
2022/08/14,04:10,0.586,0.824,0.524,0.998,0.718,0.336,0.583,0.548,�k��,5.1,��
2022/08/14,04:20,0.583,0.824,0.525,0.998,0.719,0.336,0.582,0.551,�k��,5.2,��
2022/08/14,04:30,0.585,0.824,0.524,0.998,0.718,0.336,0.584,0.549,�k�k��,5.0,��
2022/08/14,04:40,0.585,0.826,0.526,0.998,0.720,0.337,0.584,0.550,�k�k��,5.5,��
2022/08/14,04:50,0.585,0.825,0.524,0.996,0.721,0.338,0.584,0.551,�k�k��,3.5,��
2022/08/14,05:00,0.587,0.827,0.525,0.997,0.719,0.337,0.583,0.551,�k�k��,3.1,��
2022/08/14,05:10,0.586,0.826,0.525,0.999,0.720,0.337,0.586,0.551,�k�k��,1.9,�L
2022/08/14,05:20,0.586,0.829,0.525,1.001,0.721,0.337,0.583,0.552,�k�k��,2.0,�L
2022/08/14,05:30,0.584,0.827,0.525,1.002,0.720,0.338,0.583,0.553,��,0.8,�L
2022/08/14,05:40,0.587,0.825,0.526,0.999,0.719,0.337,0.584,0.552,��쐼,2.0,�L
2022/08/14,05:50,0.586,0.826,0.524,1.001,0.720,0.337,0.583,0.552,��,2.6,�L
2022/08/14,06:00,0.585,0.828,0.526,1.000,0.723,0.337,0.583,0.552,��쓌,1.7,�L
2022/08/14,06:10,0.586,0.826,0.524,0.999,0.719,0.338,0.584,0.553,���쓌,0.9,��
2022/08/14,06:20,0.586,0.826,0.526,1.000,0.719,0.337,0.583,0.552,�k��,1.2,�L
2022/08/14,06:30,0.587,0.828,0.526,1.003,0.721,0.339,0.585,0.551,���k��,1.7,��
2022/08/14,06:40,0.584,0.829,0.526,1.000,0.720,0.338,0.585,0.553,�k�k��,2.2,�L
2022/08/14,06:50,0.587,0.827,0.527,0.999,0.719,0.338,0.584,0.550,���k��,0.9,�L
2022/08/14,07:00,0.588,0.825,0.526,1.001,0.719,0.337,0.584,0.552,���쓌,0.9,�L
2022/08/14,07:10,0.585,0.828,0.527,0.999,0.720,0.338,0.583,0.551,�k�k��,0.9,��
2022/08/14,07:20,0.585,0.828,0.524,0.999,0.719,0.338,0.582,0.549,�k��,1.1,��
2022/08/14,07:30,0.586,0.825,0.525,0.998,0.719,0.338,0.583,0.551,��쓌,0.8,��
2022/08/14,07:40,0.586,0.827,0.527,1.000,0.718,0.337,0.584,0.549,��,0.6,��
2022/08/14,07:50,0.585,0.828,0.526,0.997,0.719,0.338,0.581,0.551,��,3.1,��
2022/08/14,08:00,0.587,0.829,0.525,0.999,0.720,0.337,0.584,0.552,��,4.1,��
2022/08/14,08:10,0.586,0.831,0.523,0.998,0.718,0.337,0.582,0.550,��,4.1,��
2022/08/14,08:20,0.586,0.829,0.525,1.000,0.718,0.337,0.582,0.551,��쐼,4.9,��
2022/08/14,08:30,0.585,0.828,0.524,0.998,0.719,0.338,0.585,0.548,��쐼,3.6,��
2022/08/14,08:40,0.587,0.829,0.525,0.998,0.718,0.337,0.584,0.549,��,3.0,��
2022/08/14,08:50,0.586,0.829,0.525,0.998,0.718,0.336,0.586,0.549,��쓌,4.1,��
2022/08/14,09:00,0.586,0.830,0.524,0.998,0.717,0.338,0.584,0.549,��쓌,3.8,��
2022/08/14,09:10,0.587,0.828,0.525,0.998,0.719,0.337,0.583,0.549,��쓌,4.0,��
2022/08/14,09:20,0.587,0.829,0.526,1.000,0.721,0.338,0.584,0.549,��쓌,4.3,�L
2022/08/14,09:30,0.590,0.828,0.528,1.000,0.722,0.339,0.585,0.550,��,3.2,�L
2022/08/14,09:40,0.590,0.830,0.529,1.002,0.721,0.339,0.584,0.548,��,3.1,�L
2022/08/14,09:50,0.591,0.831,0.528,1.002,0.723,0.340,0.586,0.550,��,4.9,��
2022/08/14,10:00,0.590,0.832,0.530,1.001,0.722,0.340,0.585,0.549,��쓌,0.8,��
2022/08/14,10:10,0.589,0.831,0.529,1.002,0.723,0.339,0.586,0.550,���쐼,0.8,��
2022/08/14,10:20,0.590,0.835,0.530,1.002,0.722,0.339,0.585,0.550,�쐼,0.9,��
2022/08/14,10:30,0.590,0.831,0.530,1.002,0.723,0.338,0.587,0.550,��,0.8,��
2022/08/14,10:40,0.589,0.832,0.527,1.000,0.723,0.338,0.587,0.551,-,CALM,��
2022/08/14,10:50,0.589,0.834,0.529,1.001,0.723,0.337,0.587,0.552,�k��,0.8,��
2022/08/14,11:00,0.587,0.833,0.529,1.002,0.723,0.340,0.585,0.549,��쐼,1.2,��
2022/08/14,11:10,0.590,0.833,0.529,1.001,0.723,0.338,0.585,0.551,�쓌,1.2,��
2022/08/14,11:20,0.587,0.833,0.529,1.001,0.723,0.338,0.586,0.550,���쓌,2.2,��
2022/08/14,11:30,0.589,0.835,0.529,1.001,0.722,0.338,0.586,0.551,���쓌,1.4,��
2022/08/14,11:40,0.589,0.834,0.530,1.000,0.725,0.339,0.586,0.551,��,1.4,��
2022/08/14,11:50,0.591,0.836,0.532,1.002,0.725,0.339,0.586,0.550,�쓌,1.4,��
2022/08/14,12:00,0.590,0.834,0.529,1.000,0.726,0.338,0.585,0.552,���쓌,1.2,��
2022/08/14,12:10,0.593,0.836,0.530,1.000,0.726,0.340,0.587,0.551,�k�k��,0.9,��
2022/08/14,12:20,0.589,0.834,0.529,1.001,0.724,0.339,0.587,0.551,��,2.3,��
2022/08/14,12:30,0.591,0.836,0.531,0.999,0.726,0.339,0.587,0.552,���k��,1.7,��
2022/08/14,12:40,0.593,0.838,0.530,1.001,0.725,0.339,0.589,0.552,��,2.2,��
2022/08/14,12:50,0.592,0.838,0.529,1.001,0.728,0.339,0.586,0.553,�쓌,2.6,��
2022/08/14,13:00,0.592,0.838,0.531,1.001,0.728,0.339,0.589,0.553,���쓌,3.1,��
2022/08/14,13:10,0.593,0.838,0.531,1.001,0.729,0.340,0.588,0.552,��,2.0,��
2022/08/14,13:20,0.592,0.837,0.532,1.002,0.729,0.338,0.588,0.553,��,3.2,��
2022/08/14,13:30,0.594,0.838,0.533,1.003,0.730,0.340,0.589,0.553,��,3.4,��
2022/08/14,13:40,0.594,0.839,0.534,1.004,0.728,0.339,0.588,0.553,��,2.9,��
2022/08/14,13:50,0.592,0.839,0.530,1.005,0.729,0.340,0.589,0.553,���쓌,3.8,��
2022/08/14,14:00,0.590,0.840,0.533,1.006,0.729,0.340,0.589,0.552,�쓌,3.4,��
2022/08/14,14:10,0.595,0.839,0.533,1.003,0.728,0.341,0.589,0.554,�쓌,2.8,��
2022/08/14,14:20,0.594,0.840,0.534,1.006,0.730,0.339,0.590,0.552,�쓌,2.5,��
2022/08/14,14:30,0.593,0.837,0.533,1.007,0.731,0.341,0.590,0.553,���쓌,2.5,��
2022/08/14,14:40,0.594,0.840,0.535,1.006,0.730,0.340,0.588,0.554,�쓌,2.6,��
2022/08/14,14:50,0.595,0.841,0.532,1.006,0.731,0.341,0.589,0.553,�쓌,2.2,��
2022/08/14,15:00,0.593,0.841,0.533,1.005,0.732,0.339,0.589,0.552,�쓌,1.4,��
2022/08/14,15:10,0.593,0.841,0.533,1.008,0.731,0.338,0.589,0.553,�쓌,1.4,��
2022/08/14,15:20,0.593,0.841,0.534,1.006,0.730,0.339,0.589,0.552,���쓌,1.9,��
2022/08/14,15:30,0.595,0.836,0.532,1.006,0.732,0.340,0.589,0.554,���쓌,1.7,��
2022/08/14,15:40,0.591,0.840,0.533,1.007,0.732,0.338,0.589,0.553,���쓌,1.4,��
2022/08/14,15:50,0.593,0.841,0.533,1.008,0.731,0.338,0.588,0.553,��,1.7,��
2022/08/14,16:00,0.594,0.840,0.534,1.008,0.732,0.339,0.587,0.554,���쓌,1.7,��
2022/08/14,16:10,0.593,0.840,0.532,1.008,0.732,0.339,0.588,0.552,��쓌,0.8,��
2022/08/14,16:20,0.592,0.841,0.532,1.009,0.733,0.340,0.589,0.553,��쓌,2.3,��
2022/08/14,16:30,0.594,0.840,0.533,1.010,0.731,0.340,0.589,0.552,��쓌,1.7,��
2022/08/14,16:40,0.592,0.839,0.531,1.008,0.732,0.338,0.589,0.552,-,CALM,��
2022/08/14,16:50,0.592,0.840,0.532,1.007,0.731,0.338,0.589,0.553,��쓌,0.6,��
2022/08/14,17:00,0.592,0.839,0.532,1.008,0.732,0.340,0.588,0.552,-,CALM,��
2022/08/14,17:10,0.591,0.841,0.534,1.008,0.732,0.340,0.588,0.552,�쓌,2.0,��
2022/08/14,17:20,0.592,0.842,0.533,1.008,0.732,0.339,0.589,0.552,��쓌,2.2,��
2022/08/14,17:30,0.593,0.839,0.533,1.011,0.730,0.340,0.589,0.553,��쓌,2.8,��
2022/08/14,17:40,0.592,0.840,0.531,1.007,0.732,0.340,0.589,0.554,��쓌,1.2,��
2022/08/14,17:50,0.592,0.841,0.531,1.009,0.732,0.339,0.589,0.555,�쓌,0.8,��
2022/08/14,18:00,0.594,0.842,0.533,1.010,0.731,0.341,0.588,0.554,��,0.8,��
2022/08/14,18:10,0.594,0.842,0.534,1.010,0.730,0.341,0.588,0.555,�쓌,0.6,��
2022/08/14,18:20,0.594,0.844,0.533,1.007,0.732,0.341,0.589,0.554,�k��,0.8,��
2022/08/14,18:30,0.595,0.843,0.535,1.011,0.732,0.340,0.589,0.555,-,CALM,��
2022/08/14,18:40,0.594,0.843,0.533,1.008,0.732,0.340,0.587,0.553,��,0.8,��
2022/08/14,18:50,0.594,0.842,0.532,1.010,0.734,0.340,0.588,0.556,���k��,0.8,��
2022/08/14,19:00,0.593,0.844,0.534,1.013,0.732,0.339,0.590,0.555,�k��,1.1,��
2022/08/14,19:10,0.594,0.843,0.535,1.010,0.732,0.341,0.589,0.555,�k��,1.2,��
2022/08/14,19:20,0.595,0.842,0.535,1.011,0.733,0.341,0.589,0.556,�k��,1.5,��
2022/08/14,19:30,0.594,0.843,0.534,1.010,0.733,0.338,0.589,0.553,�k�k��,1.5,��
2022/08/14,19:40,0.593,0.844,0.534,1.012,0.732,0.341,0.590,0.555,�k�k��,2.3,��
2022/08/14,19:50,0.595,0.843,0.534,1.011,0.734,0.339,0.589,0.555,�k,2.0,��
2022/08/14,20:00,0.593,0.844,0.533,1.010,0.731,0.341,0.590,0.555,�k,2.0,��
2022/08/14,20:10,0.594,0.844,0.537,1.011,0.733,0.341,0.589,0.554,�k�k��,2.6,��
2022/08/14,20:20,0.593,0.845,0.535,1.010,0.733,0.341,0.589,0.554,�k��,2.8,�L
2022/08/14,20:30,0.594,0.844,0.535,1.012,0.733,0.340,0.590,0.556,�k��,3.0,�L
2022/08/14,20:40,0.594,0.846,0.537,1.012,0.733,0.343,0.590,0.558,�k��,2.9,�L
2022/08/14,20:50,0.595,0.844,0.535,1.013,0.734,0.342,0.590,0.556,�k��,2.0,�L
2022/08/14,21:00,0.594,0.844,0.535,1.012,0.732,0.342,0.590,0.556,�k��,2.6,��
2022/08/14,21:10,0.594,0.843,0.534,1.010,0.732,0.342,0.591,0.556,�k�k��,3.6,��
2022/08/14,21:20,0.594,0.842,0.533,1.010,0.734,0.341,0.590,0.554,�k�k��,4.1,��
2022/08/14,21:30,0.594,0.843,0.533,1.011,0.732,0.341,0.591,0.555,�k�k��,3.2,��
2022/08/14,21:40,0.593,0.844,0.532,1.011,0.733,0.340,0.590,0.555,�k�k��,3.8,��
2022/08/14,21:50,0.595,0.844,0.534,1.011,0.731,0.340,0.591,0.557,�k��,1.7,��
2022/08/14,22:00,0.595,0.842,0.534,1.012,0.734,0.341,0.590,0.556,�k�k��,1.7,��
2022/08/14,22:10,0.594,0.844,0.533,1.012,0.733,0.341,0.590,0.556,���k��,0.9,��
2022/08/14,22:20,0.594,0.843,0.532,1.010,0.733,0.340,0.590,0.555,-,CALM,��
2022/08/14,22:30,0.594,0.844,0.534,1.009,0.732,0.341,0.591,0.555,��쓌,0.9,��
2022/08/14,22:40,0.594,0.843,0.534,1.008,0.731,0.341,0.590,0.556,�쓌,0.8,��
2022/08/14,22:50,0.595,0.841,0.534,1.010,0.731,0.341,0.590,0.556,��쓌,1.4,��
2022/08/14,23:00,0.595,0.843,0.534,1.009,0.732,0.340,0.589,0.555,��,2.0,�L
2022/08/14,23:10,0.596,0.840,0.533,1.010,0.733,0.342,0.590,0.553,��,1.2,�L
2022/08/14,23:20,0.596,0.840,0.535,1.010,0.730,0.342,0.589,0.554,�k��,3.4,�L
2022/08/14,23:30,0.593,0.831,0.531,1.005,0.723,0.343,0.585,0.553,�k,1.7,�L
2022/08/14,23:40,0.587,0.818,0.532,0.995,0.719,0.344,0.583,0.549,�k,4.1,�L
2022/08/14,23:50,0.592,0.820,0.534,0.991,0.719,0.345,0.583,0.550,�k,2.9,�L
